Вернуться в каталог

ONEWEB-0088

АктивенСвязьPO
NORAD 45457·PAYLOAD·🇬🇧 United Kingdom

Запущен Mar 21, 2020 с Baikonur Cosmodrome

Loading…

Ближайшие Пролёты (ближайшие 24 часа)

TLE

СвежийSource: CelesTrak SupGP

Эпоха: Sep 14, 2026, 19:11 UTC

1 45457C 20020AK  26257.79979167 -.00000003  00000+0 -86262-5 0  2576
2 45457  87.8979   3.2316 0001985 114.8102 346.0339 13.11414373    17

Отслеживайте ONEWEB-0088 в реальном времени с AllMySat

Download on the App Store